XW-2B (40911 NORAD) Tracking and Keplerian Element Data

This shows tracking and keplerian element data for the satellite.

Feedback or suggestion? Click here.




ElementValue
Catalog40911
NameXW-2B
Epoch Orbit50289
Epoch Day286.88576852
Epoch Year2024
RAAN312.0293
Inclination97.4557
Eccentricity0.0004864
Argument of Perigee178.175
Mean Anonmoly276.8933
Mean Motion15.74470589
Decay Rate0.00206941
L11 40911U 15049N 24286.88576852 .00206941 00000+0 13969-2 0 9996
L22 40911 97.4557 312.0293 0004864 178.1750 276.8933 15.74470589502897



Live tracking and technical data element details for XW-2B (NORAD 40911). XW-2B can be tracked NOW for your location showing map with azimuth and elevation plus other details from your city location.







IsCatalogInMostPopularTable: catalog: 40911, numindb: 479
Update: records affected: 1



GetName: 40911 XW-2B

Hit Count: updated at: Thu, 23 Jan 2025 16:13:48 GMT